FW6905 Weather Reports


Display with metric or nautical units.
time (UTC)temp
F
wind
direction
speed
MPH
gust
MPH
rain 1hr
in
rain 24hr
in
rain mn
in
humidity
%
barometer
mb
20260901060005 75 339 6.0 10.0 0.00 0.00 0.00 52 1020.8
20260901055005 74 349 3.0 9.0 0.00 0.00 0.00 53 1020.8
20260901054505 74 8 6.0 12.0 0.00 0.00 0.00 53 1020.8
20260901054005 74 8 3.0 12.0 0.00 0.00 0.00 53 1020.8
20260901053506 73 352 9.0 12.0 0.00 0.00 0.00 53 1020.8
20260901053005 73 326 5.0 9.0 0.00 0.00 0.00 56 1020.8
20260901052505 73 325 3.0 9.0 0.00 0.00 0.00 58 1020.8
20260901052005 72 331 6.0 8.0 0.00 0.00 0.00 58 1020.8
20260901051505 72 329 5.0 7.0 0.00 0.00 0.00 59 1020.8
20260901051005 72 333 4.0 7.0 0.00 0.00 0.00 60 1020.8
20260901050506 71 343 4.0 7.0 0.00 0.00 0.00 61 1020.8
20260901045505 70 324 4.0 8.0 0.00 0.00 0.00 64 1019.8
20260901045006 69 4 4.0 6.0 0.00 0.00 0.00 66 1019.8
20260901044506 69 351 5.0 6.0 0.00 0.00 0.00 69 1019.8
20260901044005 68 319 4.0 7.0 0.00 0.00 0.00 73 1019.8
20260901043005 68 307 2.0 4.0 0.00 0.00 0.00 73 1019.8
20260901042005 69 132 2.0 4.0 0.00 0.00 0.00 74 1018.8
20260901041505 69 72 0.0 3.0 0.00 0.00 0.00 74 1018.8
20260901041006 69 88 1.0 5.0 0.00 0.00 0.00 75 1019.8
20260901040505 69 83 4.0 5.0 0.00 0.00 0.00 75 1019.8
20260901040005 69 327 0.0 3.0 0.00 0.00 0.00 76 1019.8
20260901035505 69 314 0.0 4.0 0.00 0.00 0.00 76 1019.8
20260901035005 69 34 2.0 4.0 0.00 0.00 0.00 76 1019.8
20260901034505 69 56 1.0 4.0 0.00 0.00 0.00 75 1019.8
20260901034004 69 67 3.0 4.0 0.00 0.00 0.00 77 1019.8
20260901033505 69 70 3.0 4.0 0.00 0.00 0.00 77 1019.8
20260901032505 69 48 2.0 3.0 0.00 0.00 0.00 77 1019.8
20260901032006 69 71 2.0 3.0 0.00 0.00 0.00 79 1019.8
20260901031505 69 58 1.0 3.0 0.00 0.00 0.00 79 1019.8
20260901031005 69 44 2.0 3.0 0.00 0.00 0.00 80 1019.8
20260901030505 69 226 2.0 3.0 0.00 0.00 0.00 80 1019.8
20260901030005 70 237 2.0 3.0 0.00 0.00 0.00 80 1019.8
20260901025505 70 28 2.0 3.0 0.00 0.00 0.00 79 1019.8
20260901024505 70 81 2.0 4.0 0.00 0.00 0.00 80 1019.8
20260901024005 70 72 3.0 4.0 0.00 0.00 0.00 80 1019.8
20260901023005 69 68 2.0 4.0 0.00 0.00 0.00 81 1019.8
20260901022505 69 53 3.0 4.0 0.00 0.00 0.00 82 1019.8
20260901022005 69 53 2.0 3.0 0.00 0.00 0.00 82 1019.8
20260901021505 69 97 2.0 4.0 0.00 0.00 0.00 84 1019.8
20260901021005 70 135 2.0 4.0 0.00 0.00 0.00 84 1018.8
20260901020005 70 291 2.0 3.0 0.00 0.00 0.00 81 1018.8
20260901015505 70 263 0.0 3.0 0.00 0.00 0.00 82 1018.8
20260901015005 70 223 2.0 3.0 0.00 0.00 0.00 81 1018.8
20260901014505 70 126 1.0 4.0 0.00 0.00 0.00 81 1018.8
20260901013505 70 102 1.0 5.0 0.00 0.00 0.00 81 1019.8
20260901013005 70 92 2.0 6.0 0.00 0.00 0.00 81 1019.8
20260901012005 70 64 3.0 6.0 0.00 0.00 0.00 82 1019.8
20260901011505 70 59 3.0 5.0 0.00 0.00 0.00 82 1019.8
20260901011005 70 247 0.0 5.0 0.00 0.00 0.00 82 1019.8
20260901010505 70 329 4.0 5.0 0.00 0.00 0.00 84 1019.8
20260901010005 70 22 3.0 4.0 0.00 0.00 0.00 81 1019.8
20260901005504 70 37 1.0 4.0 0.00 0.00 0.00 82 1019.8
20260901004505 70 57 3.0 4.0 0.00 0.00 0.00 81 1019.8
20260901004005 70 97 0.0 2.0 0.00 0.00 0.00 82 1019.8
20260901003505 70 75 2.0 4.0 0.00 0.00 0.00 82 1019.8
20260901003005 70 44 2.0 4.0 0.00 0.00 0.00 81 1019.8
20260901002505 70 55 2.0 4.0 0.00 0.00 0.00 81 1019.8
20260901002005 70 132 2.0 4.0 0.00 0.00 0.00 81 1019.8
20260901001504 70 45 0.0 2.0 0.00 0.00 0.00 80 1019.8
20260901001006 70 28 2.0 2.0 0.00 0.00 0.00 81 1018.8
20260901000005 70 251 2.0 4.0 0.00 0.00 0.00 81 1018.8
20260831235505 69 303 2.0 4.0 0.00 0.00 0.00 80 1018.8
20260831235005 69 8 2.0 3.0 0.00 0.00 0.00 80 1018.8
20260831234504 69 54 0.0 3.0 0.00 0.00 0.00 79 1018.8
20260831234005 69 79 2.0 3.0 0.00 0.00 0.00 79 1018.8
20260831233505 69 80 2.0 3.0 0.00 0.00 0.00 80 1018.8
20260831233006 69 80 2.0 3.0 0.00 0.00 0.00 80 1018.8
20260831232005 69 90 0.0 2.0 0.00 0.00 0.00 80 1018.8
20260831231505 69 85 0.0 3.0 0.00 0.00 0.00 79 1018.8
20260831231005 69 69 1.0 3.0 0.00 0.00 0.00 79 1018.8
20260831230005 69 178 2.0 2.0 0.00 0.00 0.00 79 1018.8
20260831225504 69 181 0.0 2.0 0.00 0.00 0.00 79 1017.7
20260831224505 69 20 1.0 4.0 0.00 0.00 0.00 80 1017.7
20260831224004 69 18 0.0 4.0 0.00 0.00 0.00 79 1017.7
20260831223505 69 61 2.0 4.0 0.00 0.00 0.00 79 1017.7
20260831222005 69 229 0.0 3.0 0.00 0.00 0.00 79 1017.7
20260831221504 69 228 3.0 3.0 0.00 0.00 0.00 79 1017.7
20260831221005 69 230 2.0 3.0 0.00 0.00 0.00 80 1017.7
20260831220505 69 257 2.0 2.0 0.00 0.00 0.00 79 1017.7
20260831220011 69 314 1.0 2.0 0.00 0.00 0.00 79 1017.7
20260831215505 69 359 2.0 2.0 0.00 0.00 0.00 78 1017.7
20260831215005 69 101 1.0 5.0 0.00 0.00 0.00 77 1017.7
20260831214504 69 98 3.0 5.0 0.00 0.00 0.00 79 1017.7
20260831214005 69 87 2.0 5.0 0.00 0.00 0.00 77 1017.7
20260831213505 69 83 4.0 5.0 0.00 0.00 0.00 77 1017.7
20260831213005 69 70 2.0 3.0 0.00 0.00 0.00 77 1017.7
20260831212505 69 68 2.0 3.0 0.00 0.00 0.00 77 1016.7
20260831212005 69 119 2.0 3.0 0.00 0.00 0.00 77 1016.7
20260831211506 69 199 0.0 4.0 0.00 0.00 0.00 77 1016.7
20260831211007 69 284 3.0 4.0 0.00 0.00 0.00 78 1018.8
20260831210506 69 265 2.0 3.0 0.00 0.00 0.00 76 1018.8
20260831210007 69 244 2.0 3.0 0.00 0.00 0.00 76 1018.8
20260831205506 70 264 0.0 2.0 0.00 0.00 0.00 76 1017.7
20260831205007 70 89 1.0 4.0 0.00 0.00 0.00 75 1017.7
20260831204506 70 57 2.0 4.0 0.00 0.00 0.00 75 1017.7
20260831203506 70 64 0.0 2.0 0.00 0.00 0.00 74 1017.7
20260831203007 70 73 0.0 3.0 0.00 0.00 0.00 74 1017.7
20260831202506 70 93 2.0 3.0 0.00 0.00 0.00 73 1017.7
20260831202006 71 174 1.0 2.0 0.00 0.00 0.00 74 1017.7
20260831201007 71 213 2.0 2.0 0.00 0.00 0.00 72 1017.7
20260831200507 71 0 0.0 0.0 0.00 0.00 0.00 72 1017.7
20260831200006 71 112 0.0 2.0 0.00 0.00 0.00 71 1017.7
20260831195507 71 109 0.0 2.0 0.00 0.00 0.00 71 1017.7
20260831195006 72 90 0.0 2.0 0.00 0.00 0.00 70 1017.7
20260831194007 72 77 2.0 3.0 0.00 0.00 0.00 69 1016.7
20260831193007 72 148 1.0 2.0 0.00 0.00 0.00 68 1016.7
20260831191506 73 290 1.0 2.0 0.00 0.00 0.00 67 1016.7
20260831191007 74 292 1.0 2.0 0.00 0.00 0.00 66 1016.7
20260831190507 74 314 0.0 2.0 0.00 0.00 0.00 66 1016.7
20260831190006 74 303 0.0 2.0 0.00 0.00 0.00 66 1016.7
20260831185506 74 298 1.0 2.0 0.00 0.00 0.00 65 1015.7
20260831185007 75 292 0.0 1.0 0.00 0.00 0.00 65 1015.7
20260831184506 75 292 0.0 1.0 0.00 0.00 0.00 64 1015.7
20260831184007 75 0 0.0 0.0 0.00 0.00 0.00 62 1015.7
20260831183007 76 292 1.0 2.0 0.00 0.00 0.00 62 1015.7
20260831182506 76 181 0.0 2.0 0.00 0.00 0.00 61 1015.7
20260831182007 77 181 0.0 2.0 0.00 0.00 0.00 61 1015.7
20260831181006 77 184 0.0 2.0 0.00 0.00 0.00 59 1015.7
20260831180506 78 250 0.0 2.0 0.00 0.00 0.00 59 1015.7
20260831180006 78 266 0.0 3.0 0.00 0.00 0.00 58 1015.7
20260831175506 79 239 2.0 3.0 0.00 0.00 0.00 58 1016.7
20260831175007 79 244 2.0 4.0 0.00 0.00 0.00 57 1016.7
20260831174506 79 255 3.0 4.0 0.00 0.00 0.00 57 1016.7
20260831173506 80 267 2.0 5.0 0.00 0.00 0.00 56 1015.7
20260831172506 81 270 4.0 4.0 0.00 0.00 0.00 54 1015.7
20260831172007 81 267 3.0 4.0 0.00 0.00 0.00 54 1015.7
20260831171506 82 261 1.0 5.0 0.00 0.00 0.00 53 1015.7
20260831171007 82 254 1.0 5.0 0.00 0.00 0.00 53 1015.7
20260831170506 82 226 2.0 4.0 0.00 0.00 0.00 52 1015.7
20260831170007 83 224 2.0 3.0 0.00 0.00 0.00 52 1015.7
20260831165506 83 261 0.0 3.0 0.00 0.00 0.00 51 1014.7
20260831165007 83 245 2.0 5.0 0.00 0.00 0.00 50 1014.7
20260831163506 84 251 2.0 4.0 0.00 0.00 0.00 48 1015.7
20260831163007 84 225 3.0 4.0 0.00 0.00 0.00 48 1015.7
20260831162506 85 230 3.0 4.0 0.00 0.00 0.00 47 1015.7
20260831162007 85 240 3.0 4.0 0.00 0.00 0.00 47 1015.7
20260831161506 85 254 2.0 4.0 0.00 0.00 0.00 47 1015.7
20260831161006 86 247 2.0 4.0 0.00 0.00 0.00 46 1015.7
20260831160506 86 242 2.0 4.0 0.00 0.00 0.00 45 1015.7
20260831160006 86 262 2.0 4.0 0.00 0.00 0.00 44 1015.7
20260831155506 86 273 3.0 5.0 0.00 0.00 0.00 44 1015.7
20260831155006 86 277 3.0 6.0 0.00 0.00 0.00 43 1015.7
20260831154506 86 270 5.0 6.0 0.00 0.00 0.00 43 1015.7
20260831154007 87 267 4.0 6.0 0.00 0.00 0.00 43 1015.7
20260831153507 87 276 3.0 6.0 0.00 0.00 0.00 43 1015.7
20260831153007 87 297 2.0 6.0 0.00 0.00 0.00 43 1015.7
20260831152507 87 278 4.0 8.0 0.00 0.00 0.00 42 1015.7
20260831152006 87 261 2.0 8.0 0.00 0.00 0.00 42 1015.7
20260831151507 87 268 4.0 8.0 0.00 0.00 0.00 42 1015.7
20260831150506 87 247 2.0 5.0 0.00 0.00 0.00 42 1014.7
20260831145006 87 261 5.0 9.0 0.00 0.00 0.00 42 1015.7
20260831144506 87 260 5.0 9.0 0.00 0.00 0.00 42 1015.7
20260831144006 87 231 7.0 9.0 0.00 0.00 0.00 42 1014.7
20260831142006 88 253 3.0 9.0 0.00 0.00 0.00 42 1014.7
20260831141507 88 271 6.0 9.0 0.00 0.00 0.00 42 1014.7
20260831141006 88 270 5.0 7.0 0.00 0.00 0.00 42 1015.7
20260831140507 88 270 2.0 9.0 0.00 0.00 0.00 41 1015.7
20260831140007 88 271 4.0 9.0 0.00 0.00 0.00 41 1015.7
20260831135007 88 295 4.0 11.0 0.00 0.00 0.00 40 1015.7
20260831134506 88 276 3.0 9.0 0.00 0.00 0.00 41 1015.7
20260831133506 88 275 4.0 8.0 0.00 0.00 0.00 41 1014.7
20260831133007 88 267 2.0 11.0 0.00 0.00 0.00 41 1014.7
20260831132506 88 259 5.0 11.0 0.00 0.00 0.00 41 1015.7
20260831132006 89 265 6.0 11.0 0.00 0.00 0.00 41 1015.7
20260831131506 89 286 7.0 11.0 0.00 0.00 0.00 41 1015.7
20260831131006 89 292 4.0 11.0 0.00 0.00 0.00 41 1015.7
20260831130506 89 270 4.0 11.0 0.00 0.00 0.00 41 1015.7
20260831130007 89 261 4.0 11.0 0.00 0.00 0.00 40 1015.7
20260831125506 90 268 6.0 11.0 0.00 0.00 0.00 39 1015.7
20260831125006 90 266 7.0 9.0 0.00 0.00 0.00 39 1015.7
20260831124506 90 267 5.0 9.0 0.00 0.00 0.00 39 1015.7
20260831124006 90 267 2.0 6.0 0.00 0.00 0.00 40 1015.7
20260831123507 90 227 4.0 6.0 0.00 0.00 0.00 40 1015.7
20260831123006 90 225 2.0 6.0 0.00 0.00 0.00 40 1015.7
20260831122506 90 255 3.0 6.0 0.00 0.00 0.00 41 1015.7
20260831122006 90 243 2.0 8.0 0.00 0.00 0.00 40 1015.7
20260831121506 90 254 5.0 8.0 0.00 0.00 0.00 38 1015.7
20260831121007 90 259 5.0 9.0 0.00 0.00 0.00 40 1015.7
20260831120506 90 231 5.0 9.0 0.00 0.00 0.00 40 1015.7
20260831120007 90 186 2.0 8.0 0.00 0.00 0.00 40 1015.7
20260831115006 90 213 5.0 7.0 0.00 0.00 0.00 40 1015.7
20260831114507 90 219 2.0 5.0 0.00 0.00 0.00 40 1015.7
20260831114006 90 211 2.0 5.0 0.00 0.00 0.00 42 1015.7
20260831113506 90 197 3.0 8.0 0.00 0.00 0.00 41 1015.7
20260831113006 89 211 3.0 8.0 0.00 0.00 0.00 43 1015.7
20260831112507 89 268 2.0 8.0 0.00 0.00 0.00 44 1016.7
20260831112006 89 281 6.0 8.0 0.00 0.00 0.00 44 1016.7
20260831111506 89 240 3.0 6.0 0.00 0.00 0.00 44 1016.7
20260831111007 88 270 2.0 6.0 0.00 0.00 0.00 44 1015.7
20260831110506 88 283 3.0 6.0 0.00 0.00 0.00 45 1015.7
20260831110006 88 283 2.0 8.0 0.00 0.00 0.00 45 1015.7
20260831105506 88 285 2.0 9.0 0.00 0.00 0.00 46 1016.7
20260831105006 88 283 3.0 9.0 0.00 0.00 0.00 47 1016.7
20260831104006 87 307 3.0 6.0 0.00 0.00 0.00 47 1016.7
20260831103506 87 296 4.0 7.0 0.00 0.00 0.00 47 1016.7
20260831103006 87 288 4.0 7.0 0.00 0.00 0.00 49 1016.7
20260831102506 87 271 1.0 6.0 0.00 0.00 0.00 49 1016.7
20260831102007 87 279 1.0 9.0 0.00 0.00 0.00 49 1016.7
20260831101506 86 282 6.0 9.0 0.00 0.00 0.00 50 1016.7
20260831101006 86 226 2.0 5.0 0.00 0.00 0.00 50 1016.7
20260831100506 86 178 1.0 2.0 0.00 0.00 0.00 51 1016.7
20260831100006 85 163 1.0 3.0 0.00 0.00 0.00 51 1016.7
20260831095006 85 169 2.0 3.0 0.00 0.00 0.00 50 1016.7
20260831094506 84 301 0.0 2.0 0.00 0.00 0.00 51 1016.7
20260831094006 84 176 2.0 2.0 0.00 0.00 0.00 52 1016.7
20260831093506 84 153 1.0 4.0 0.00 0.00 0.00 52 1016.7
20260831092507 83 130 2.0 4.0 0.00 0.00 0.00 53 1017.7
20260831092006 83 151 1.0 4.0 0.00 0.00 0.00 53 1017.7
20260831091006 82 153 3.0 5.0 0.00 0.00 0.00 54 1017.7
20260831085006 80 162 3.0 5.0 0.00 0.00 0.00 57 1017.7
20260831084506 80 152 3.0 5.0 0.00 0.00 0.00 56 1017.7
20260831084006 80 152 3.0 6.0 0.00 0.00 0.00 57 1017.7
20260831083506 79 149 4.0 6.0 0.00 0.00 0.00 58 1017.7
20260831083006 79 134 5.0 5.0 0.00 0.00 0.00 59 1017.7
20260831082506 78 143 2.0 6.0 0.00 0.00 0.00 60 1017.7
20260831082006 78 149 3.0 6.0 0.00 0.00 0.00 60 1017.7
20260831081506 78 125 4.0 6.0 0.00 0.00 0.00 60 1017.7
20260831081006 77 101 3.0 4.0 0.00 0.00 0.00 61 1017.7
20260831080506 76 110 2.0 4.0 0.00 0.00 0.00 63 1017.7
20260831080006 76 126 3.0 5.0 0.00 0.00 0.00 64 1017.7
20260831075506 76 121 2.0 6.0 0.00 0.00 0.00 65 1017.7
20260831074506 75 114 2.0 6.0 0.00 0.00 0.00 66 1017.7
20260831074006 74 109 4.0 6.0 0.00 0.00 0.00 67 1017.7
20260831073506 74 87 2.0 6.0 0.00 0.00 0.00 70 1017.7
20260831072506 73 95 3.0 8.0 0.00 0.00 0.00 70 1017.7
20260831072006 73 104 2.0 8.0 0.00 0.00 0.00 72 1017.7
20260831071506 72 113 2.0 6.0 0.00 0.00 0.00 73 1017.7
20260831071006 72 112 3.0 6.0 0.00 0.00 0.00 74 1017.7
20260831070506 71 107 2.0 5.0 0.00 0.00 0.00 78 1017.7
20260831065506 70 92 3.0 7.0 0.00 0.00 0.00 77 1017.7
20260831064506 69 97 5.0 7.0 0.00 0.00 0.00 84 1017.7
20260831064006 69 91 4.0 6.0 0.00 0.00 0.00 85 1017.7
20260831062506 67 146 3.0 5.0 0.00 0.00 0.00 88 1017.7
20260831062006 67 158 1.0 4.0 0.00 0.00 0.00 89 1017.7
20260831061506 66 135 2.0 4.0 0.00 0.00 0.00 90 1017.7
20260831061007 66 120 3.0 4.0 0.00 0.00 0.00 90 1016.7
20260831060506 66 121 1.0 5.0 0.00 0.00 0.00 92 1016.7